Weather History for KIPL - August, 2013

Change the Weather History Date:

Wednesday, August 14, 2013

  Actual Average Record
Temperature  
Mean Temperature 91 °F -  
Max Temperature 108 °F 104 °F 114 °F (2012)
Min Temperature 75 °F 77 °F 66 °F (1949)
Cooling Degree Days 26    
Growing Degree Days 41 (Base 50)    
Moisture  
Dew Point 59 °F    
Average Humidity 39    
Maximum Humidity 79    
Minimum Humidity 13    
Precipitation  
Precipitation 0.00 in - - ()
Sea Level Pressure  
Sea Level Pressure 29.77 in    
Wind  
Wind Speed 4 mph (SSE)    
Max Wind Speed 10 mph    
Max Gust Speed -    
Visibility 10 miles    
Events      
Averages and records for this station are not official NWS values.
T = Trace of Precipitation, MM = Missing Value Source: NWS Daily Summary

Daily Weather History Graph

Daily Weather History Graph

Search for Another Location

Airport or City:

Trip Planner

Search our weather history database for the weather conditions in past years. The results will help you decide how hot, cold, wet, or windy it might be!

Date:

Astronomy

Aug. 14, 2013 Rise Set
Actual Time 6:05 AM PDT 7:28 PM PDT
Civil Twilight 5:39 AM PDT 7:54 PM PDT
Nautical Twilight 5:07 AM PDT 8:25 PM PDT
Astronomical Twilight 4:35 AM PDT 8:57 PM PDT
Moon 1:40 PM PDT (8/14) No Moon Set
Length of Visible Light 14h 15m
Length of Day
13h 22m
First Quarter, 54% of the Moon is Illuminated
Aug 14
First Quarter
Aug 20
Full
Aug 28
Last Quarter
Sep 5
New
Sep 12
First Quarter

Hourly Weather History & Observations

Time (PDT) Temp. Heat Index Dew Point Humidity Pressure Visibility Wind Dir Wind Speed Gust Speed Precip Events Conditions
12:53 AM 80.1 °F 80.4 °F 57.0 °F 45% 29.76 in 10.0 mi Calm Calm - N/A   Clear
1:53 AM 82.9 °F 82.0 °F 55.0 °F 38% 29.76 in 10.0 mi NE 4.6 mph - N/A   Clear
2:53 AM 80.1 °F 80.6 °F 57.9 °F 47% 29.76 in 10.0 mi ENE 6.9 mph - N/A   Clear
3:53 AM 79.0 °F - 62.1 °F 56% 29.77 in 10.0 mi ESE 8.1 mph - N/A   Clear
4:53 AM 78.1 °F - 68.0 °F 71% 29.79 in 10.0 mi SE 10.4 mph - N/A   Unknown
5:53 AM 77.0 °F - 69.1 °F 76% 29.80 in 10.0 mi SE 6.9 mph - N/A   Unknown
6:53 AM 75.9 °F - 69.1 °F 79% 29.83 in 10.0 mi ESE 5.8 mph - N/A   Unknown
7:53 AM 80.1 °F 83.6 °F 71.1 °F 74% 29.83 in 10.0 mi SE 9.2 mph - N/A   Unknown
8:53 AM 84.0 °F 91.2 °F 73.9 °F 72% 29.83 in 10.0 mi Calm Calm - N/A   Unknown
9:53 AM 88.0 °F 93.8 °F 71.1 °F 57% 29.84 in 10.0 mi SE 4.6 mph - N/A   Clear
10:53 AM 93.9 °F 99.1 °F 69.1 °F 44% 29.83 in 10.0 mi Calm Calm - N/A   Clear
11:53 AM 98.1 °F 99.6 °F 63.0 °F 31% 29.82 in 10.0 mi East 4.6 mph - N/A   Clear
12:53 PM 100.0 °F 100.2 °F 59.0 °F 26% 29.80 in 10.0 mi Calm Calm - N/A   Clear
1:53 PM 104.0 °F 102.9 °F 55.0 °F 20% 29.78 in 10.0 mi South 5.8 mph - N/A   Clear
2:53 PM 105.1 °F - 48.9 °F 15% 29.76 in 10.0 mi Calm Calm - N/A   Clear
3:53 PM 107.1 °F - 46.0 °F 13% 29.73 in 10.0 mi SSW 4.6 mph - N/A   Clear
4:53 PM 106.0 °F - 48.9 °F 15% 29.71 in 10.0 mi Calm Calm - N/A   Clear
5:53 PM 106.0 °F - 52.0 °F 17% 29.69 in 10.0 mi WSW 4.6 mph - N/A   Clear
6:53 PM 102.9 °F - 52.0 °F 18% 29.69 in 10.0 mi West 4.6 mph - N/A   Clear
7:53 PM 102.0 °F 100.1 °F 54.0 °F 20% 29.70 in 10.0 mi SE 8.1 mph - N/A   Clear
8:53 PM 99.0 °F 96.5 °F 53.1 °F 21% 29.72 in 10.0 mi SSE 5.8 mph - N/A   Clear
9:53 PM 95.0 °F - 52.0 °F 23% 29.74 in 10.0 mi SSW 3.5 mph - N/A   Clear
10:53 PM 91.9 °F 89.5 °F 53.1 °F 27% 29.75 in 10.0 mi Calm Calm - N/A   Clear
11:53 PM 88.0 °F 86.5 °F 55.9 °F 34% 29.75 in 10.0 mi West 3.5 mph - N/A   Clear